Regional Weather Roundup
Issued by NWS Columbia, SC

Home | Current Version | Previous Version | Text Only | Print | Product List | Glossary On
Versions: 1 2 3 4 5 6 7 8 9 10 11 12 13 14 15 16 17 18 19 20 21 22 23 24 25 26 27 28
000
ASUS42 KCAE 291310
RWRCAE
REGIONAL WEATHER ROUNDUP
NATIONAL WEATHER SERVICE COLUMBIA SC
900 AM EDT WED MAR 29 2017

NOTE: "FAIR" INDICATES FEW OR NO CLOUDS BELOW 12,000 FEET WITH NO
SIGNIFICANT WEATHER AND/OR OBSTRUCTIONS TO VISIBILITY.

NOT ALL STATIONS ARE QUALITY CONTROLLED BY THE NATIONAL
WEATHER SERVICE. USE DATA WITH CAUTION...ESPECIALLY
DEWPOINT OBSERVATIONS.

SCZ001>056-GAZ040-063>065-077-291400-
...UPSTATE SOUTH CAROLINA...

CITY           SKY/WX    TMP DP  RH WIND       PRES   REMARKS
ANDERSON       SUNNY     61  53  75 CALM      30.06R
LIBERTY        SUNNY     54  50  87 CALM      30.06R
SPARTANBURG    SUNNY     59  50  72 NE3       30.07R
CLEMSON        SUNNY     60  53  77 N5        30.08R
GREENVILLE     SUNNY     63  51  65 E8        30.07R
GREENWOOD      SUNNY     59  51  75 N3        30.07R
GREER          SUNNY     63  50  62 NE5       30.06R
ROCK HILL      SUNNY     62  53  72 N6        30.06R
CHESTER        SUNNY     61  50  67 N5        30.07R
LAURENS        SUNNY     59  52  77 CALM      30.06R


...CENTRAL SOUTH CAROLINA...

CITY           SKY/WX    TMP DP  RH WIND       PRES   REMARKS
COLUMBIA APT   SUNNY     63  55  75 CALM      30.04R
COLUMBIA OWENS SUNNY     63  56  78 CALM      30.05R
MCENTIRE ANGB  SUNNY     65  51  60 NE5       30.04R
ORANGEBURG     SUNNY     66  51  58 NE10      30.03R
SUMTER SHAW    SUNNY     65  52  63 N3        30.01R
NEWBERRY       SUNNY     61  52  72 NE7       30.09R
AIKEN          FAIR      63  52  67 NE9       30.07R
BARNWELL       FAIR      68  55  64 NE9       30.03R
MANNING        FAIR      63  52  67 N8        30.03R
CAMDEN         FAIR      63  52  67 N7        30.05R
LANCASTER      SUNNY     59  59 100 CALM      30.06R
WINNSBORO      SUNNY     63  52  67 NE6       30.05R


...EASTERN AND COASTAL SOUTH CAROLINA...

CITY           SKY/WX    TMP DP  RH WIND       PRES   REMARKS
N MYRTLE BCH   SUNNY     65  54  67 N7        30.00R
CONWAY         FAIR      63  52  67 N6        30.01S
MARION         FAIR      63  54  72 NE9       30.02S
HARTSVILLE     FAIR      63  50  63 NE14      30.03R
FLORENCE       SUNNY     64  53  67 N12       30.02R
DARLINGTON     SUNNY     63  53  70 N12       30.04R
CHARLESTON APT MOSUNNY   67  55  65 NE9       30.01R
MOUNT PLEASANT FAIR      66  57  72 N3        30.00R
WALTERBORO     SUNNY     64  54  68 N5        30.03R
BEAUFORT       SUNNY     68  61  78 NE8       30.01R


...EASTERN GEORGIA...

CITY           SKY/WX    TMP DP  RH WIND       PRES   REMARKS
AUGUSTA BUSH F SUNNY     66  56  70 NW3       30.04R
AUGUSTA DANIEL SUNNY     68  49  50 E8        30.05R
THOMSON        SUNNY     60  54  81 CALM      30.10R
WASHINGTON     FAIR      64  57  77 E5        30.05R
CLAXTON        FAIR     N/A N/A N/A CALM      30.03R
SYLVANIA       SUNNY    N/A N/A N/A E3        30.04R
STATESBORO     SUNNY     68  60  75 NE3       30.03R
SAVANNAH       MOSUNNY   68  59  73 N7        30.01R


...SOUTHERN NORTH CAROLINA...

CITY           SKY/WX    TMP DP  RH WIND       PRES   REMARKS
CHARLOTTE      MOSUNNY   63  51  65 N9        30.07R
MONROE         SUNNY     63  50  62 NE10      30.05R
WADESBORO      SUNNY     60  51  73 N3        30.06R
ROCKINGHAM     SUNNY     61  53  75 NE5       30.05R
RUTHERFORDTON  SUNNY     57  52  82 CALM      30.09R
ASHEVILLE      SUNNY     50  46  86 CALM      30.11R

$$




USA.gov is the U.S. government's official web portal to all federal, state and local government web resources and services.